Broomfield, CO

9:41 PM MST on February 19, 2018 (GMT -0700)
Jeffco

Weather History for KBJC - October, 2011

Change the Weather History Date:

Wednesday, October 26, 2011

  Actual Average Record
Temperature  
Mean Temperature 28 °F -  
Max Temperature 30 °F 55 °F 84 °F (2014)
Min Temperature 26 °F 36 °F 23 °F (1997)
Degree Days  
Heating Degree Days 37    
Moisture  
Dew Point 26 °F    
Average Humidity 90    
Maximum Humidity 100    
Minimum Humidity 80    
Precipitation  
Precipitation 0.00 in - - ()
Sea Level Pressure  
Sea Level Pressure 30.21 in    
Wind  
Wind Speed 7 mph (North)    
Max Wind Speed 13 mph    
Max Gust Speed -    
Visibility 4 miles    
Events Snow    
Averages and records for this station are not official NWS values.
T = Trace of Precipitation, MM = Missing Value Source: NWS Daily Summary

Daily Weather History Graph

Daily Weather History Graph

Search for Another Location

Airport or City:

Trip Planner

Search our weather history database for the weather conditions in past years. The results will help you decide how hot, cold, wet, or windy it might be!

Date:

Astronomy

Oct. 26, 2011 Rise Set
Actual Time 7:22 AM MDT 6:05 PM MDT
Civil Twilight 6:54 AM MDT 6:33 PM MDT
Nautical Twilight 6:23 AM MDT 7:05 PM MDT
Astronomical Twilight 5:51 AM MDT 7:36 PM MDT
Moon 7:13 AM MDT (10/26) 5:50 PM MDT (10/26)
Length of Visible Light 11h 38m
Length of Day
10h 43m
Waning Crescent, 0% of the Moon is Illuminated
Oct 26
Waning Crescent
Oct 26
New
Nov 2
First Quarter
Nov 10
Full
Nov 18
Last Quarter

Hourly Weather History & Observations

Time (MDT) Temp. Windchill Dew Point Humidity Pressure Visibility Wind Dir Wind Speed Gust Speed Precip Events Conditions
5:46 AM 30.2 °F 24.3 °F 28.4 °F 93% 30.18 in 0.4 mi NNE 5.8 mph - N/A Snow Snow
6:35 AM 30.2 °F 24.3 °F 28.4 °F 93% 30.20 in 0.5 mi North 5.8 mph - N/A Snow Snow
6:51 AM 30.2 °F 23.4 °F 28.4 °F 93% 30.20 in 0.5 mi North 6.9 mph - N/A Snow Snow
7:55 AM 30.2 °F 21.3 °F 28.4 °F 93% 30.19 in 0.6 mi North 10.4 mph - N/A Snow Snow
8:47 AM 28.4 °F 19.7 °F 28.4 °F 100% 30.23 in 0.6 mi North 9.2 mph - N/A Snow Snow
9:51 AM 28.4 °F 19.7 °F 26.6 °F 93% 30.23 in 0.5 mi North 9.2 mph - N/A Snow Snow
10:25 AM 28.4 °F 18.0 °F 26.6 °F 93% 30.23 in 0.9 mi North 12.7 mph - N/A Snow Snow
10:54 AM 28.4 °F 18.5 °F 26.6 °F 93% 30.23 in 0.8 mi North 11.5 mph - N/A Snow Snow
11:53 AM 30.2 °F 21.9 °F 26.6 °F 86% 30.24 in 0.9 mi NNW 9.2 mph - N/A Snow Light Snow
12:08 PM 30.2 °F 21.3 °F 26.6 °F 86% 30.24 in 0.8 mi NNW 10.4 mph - N/A Snow Light Snow
12:50 PM 30.2 °F 20.8 °F 26.6 °F 86% 30.22 in 0.9 mi North 11.5 mph - N/A Snow Light Snow
1:53 PM 28.4 °F 19.7 °F 26.6 °F 93% 30.21 in 1.0 mi NNE 9.2 mph - N/A Snow Light Snow
2:50 PM 30.2 °F 23.4 °F 24.8 °F 80% 30.20 in 2.0 mi NNE 6.9 mph - N/A Snow Light Snow
3:52 PM 28.4 °F 24.6 °F 24.8 °F 86% 30.20 in 8.0 mi NNE 3.5 mph - N/A   Overcast
4:48 PM 28.4 °F 24.6 °F 24.8 °F 86% 30.21 in 10.0 mi NNE 3.5 mph - N/A   Mostly Cloudy
5:47 PM 28.4 °F 24.6 °F 24.8 °F 86% 30.20 in 10.0 mi NNE 3.5 mph - N/A   Mostly Cloudy
7:47 PM 28.4 °F - 24.8 °F 86% 30.21 in 10.0 mi Calm Calm - N/A   Overcast
8:47 PM 26.6 °F 22.6 °F 24.8 °F 93% 30.21 in 10.0 mi SSW 3.5 mph - N/A   Overcast
9:50 PM 28.4 °F 23.3 °F 24.8 °F 86% 30.21 in 10.0 mi SW 4.6 mph - N/A   Overcast